Temperature
17 14 14 15 16 17 19 19 19 19 20 21 21 20 20 22 22 21 22 22 22 23 25 24 24 23 22 22 22 21 21 20 20 19 19 18 17 17 17 17 16 16 16 16
15 15 16 16 16 18 18 19 19 19 19 21 20 20 20 20 21 23 23 23 23 23 23 23 23 23 22 22 21 21 20 20 19 19 18 18 17 16 16 16 16 15 15 15
16 17 17 17 18 18 18 18 19 19 18 19 20 19 19 21 21 22 23 23 23 23 23 23 23 23 22 21 21 20 20 19 19 18 18 17 16 16 15 15 15 15 14 14
16 17 18 18 18 18 17 18 19 19 18 17 19 17 18 19 18 19 21 21 22 23 23 23 23 22 22 21 20 19 19 18 18 18 17 17 16 16 15 14 14 14 13 13
16 17 18 18 18 18 18 19 19 19 18 17 17 17 17 17 19 19 18 18 19 21 22 22 22 21 21 20 19 18 18 17 17 17 16 16 15 15 14 14 13 13 12 12
18 18 18 18 19 19 19 19 17 14 14 16 17 16 17 16 18 17 17 17 17 18 19 19 19 19 19 18 18 17 17 17 16 16 16 15 15 14 14 13 13 12 11 11
19 19 19 20 20 20 18 16 15 16 15 15 17 17 16 17 17 16 16 16 16 16 17 17 17 17 16 16 17 17 16 16 16 15 15 15 14 14 13 13 12 11 10 10
17 17 18 19 19 18 17 16 15 16 16 16 17 17 16 17 17 16 16 15 15 15 15 15 15 15 15 15 16 16 16 15 15 15 15 14 13 13 12 11 11 10 9 9
16 17 18 19 19 19 17 16 16 15 16 16 16 17 17 16 16 16 15 15 14 14 15 15 15 15 15 15 15 15 15 15 14 14 14 13 12 12 11 10 9 9 8 8
16 17 19 20 20 19 18 16 13 14 15 16 17 17 15 16 16 16 15 14 13 14 14 14 14 14 14 14 14 14 14 13 13 13 13 12 11 11 10 9 8 8 7 7
16 17 18 19 20 19 18 17 15 13 14 15 16 15 15 15 15 15 14 13 13 13 13 13 13 13 13 13 13 13 13 13 12 12 11 10 10 9 8 8 7 7 7 6
15 15 16 18 19 19 18 17 14 16 15 14 14 14 15 15 15 14 13 12 12 12 12 12 12 12 12 12 12 12 11 11 10 10 9 9 8 8 7 7 6 6 6 6
15 15 16 17 17 17 18 17 15 14 13 13 14 14 15 15 14 13 12 11 11 11 11 11 11 11 11 11 11 10 10 9 9 8 8 7 7 7 6 6 6 5 5 5
14 13 14 15 16 16 17 17 16 15 14 14 15 14 14 14 14 12 11 11 11 11 10 10 10 10 10 10 9 9 8 8 8 7 7 6 6 6 5 5 5 5 5 5
13 14 14 15 16 16 15 15 16 16 15 15 14 14 13 13 13 12 11 11 10 10 10 10 10 10 9 9 8 8 7 7 7 6 6 5 5 5 5 4 4 4 4 4
11 13 14 14 15 15 14 14 15 15 14 14 14 13 12 12 12 11 11 10 10 9 9 9 9 9 8 8 7 7 7 6 6 6 5 5 4 4 4 4 4 4 4 3
11 12 13 13 14 14 13 13 13 13 12 13 13 12 11 11 11 10 10 10 10 9 9 9 8 8 7 7 7 6 6 5 5 5 4 4 4 4 4 3 3 3 3 3
11 11 10 11 13 12 13 13 13 12 11 12 11 11 10 10 9 9 10 10 9 9 9 8 7 7 6 6 6 5 5 5 4 4 4 4 4 3 3 3 3 2 2 1
9 10 10 10 12 12 13 13 12 12 11 11 10 10 9 9 9 8 8 9 9 8 8 7 7 6 6 5 5 5 4 4 4 4 4 3 3 3 3 2 2 1 1 0
8 8 9 10 11 11 12 12 12 12 10 11 10 9 9 9 9 8 7 8 8 7 7 6 6 5 5 4 4 4 4 4 3 3 3 3 3 3 2 2 1 1 0 -0
8 8 8 9 10 11 11 11 12 11 11 11 10 10 9 8 8 7 7 7 7 6 6 5 5 4 4 4 4 4 3 3 3 3 3 3 2 2 2 1 1 0 0 -0
8 8 8 8 9 10 10 11 10 10 10 11 11 10 9 8 6 6 6 6 6 5 5 4 4 4 4 4 4 4 3 3 3 3 3 2 2 2 1 1 0 0 -0 -0
8 8 7 8 8 8 8 8 9 10 11 11 11 10 9 7 6 5 5 5 5 4 4 4 4 4 4 4 4 3 3 3 3 3 2 2 2 1 1 1 0 0 -0 -1
8 8 7 8 8 8 8 9 10 10 10 10 10 10 9 7 6 5 5 4 4 4 4 4 4 4 4 4 3 3 3 3 3 3 2 2 2 1 1 1 0 0 -0 -1
7 8 8 8 8 9 9 9 9 9 9 9 9 8 8 7 5 5 4 4 4 4 4 4 4 4 4 4 4 3 3 3 3 3 2 2 2 1 1 1 1 0 -0 -1
6 7 7 7 8 7 8 8 8 9 9 8 8 7 6 6 5 5 4 4 4 4 4 4 4 4 4 3 3 3 3 3 3 2 2 2 2 2 1 1 1 0 -0 -1
Wind_Speed
6 5 6 9 10 7 4 2 3 6 5 3 6 9 11 6 7 9 10 12 16 22 22 15 13 12 11 12 13 13 12 10 9 7 6 5 4 3 4 5 7 8 10 12
5 5 10 8 6 5 4 3 4 7 4 2 6 10 11 7 7 9 10 13 16 17 14 13 12 12 14 14 13 12 12 9 8 7 6 5 6 5 4 5 8 10 11 12
8 7 7 7 6 6 5 6 6 6 8 6 4 9 10 8 5 6 6 8 10 14 15 14 13 13 12 12 12 10 10 9 9 10 9 8 6 5 3 4 5 6 11 12
7 7 5 6 7 8 6 8 6 3 2 5 2 5 10 8 9 7 7 6 7 9 10 9 9 8 9 8 9 10 11 11 10 10 10 9 6 4 3 4 5 6 9 11
8 7 8 8 9 10 8 5 6 4 4 3 2 3 9 7 7 9 9 10 8 6 2 2 3 5 6 9 12 13 13 12 10 9 8 7 6 6 7 7 9 8 6 8
7 5 8 10 8 9 5 5 6 5 5 2 6 6 7 4 6 8 8 10 10 8 7 8 10 12 12 12 13 14 15 13 10 10 8 8 9 11 11 10 9 7 5 4
4 4 4 5 3 2 5 5 4 3 2 7 4 5 7 4 5 5 7 9 10 10 11 12 13 13 12 13 13 14 14 12 10 9 9 9 10 12 12 10 9 8 6 4
7 8 7 8 9 8 7 10 8 6 6 6 1 6 3 3 5 7 9 11 12 13 13 14 13 13 12 12 12 13 13 12 10 10 10 11 11 9 8 9 7 7 6 5
9 8 7 8 9 11 8 8 9 7 3 2 5 3 1 4 7 9 11 12 13 13 14 14 14 13 13 13 13 12 13 12 12 12 12 12 11 11 10 9 8 6 5 5
9 6 5 3 4 2 6 8 7 8 8 6 4 3 3 3 4 6 9 10 11 12 13 13 13 13 13 13 13 13 14 14 12 11 11 11 11 10 10 10 9 8 7 6
6 6 5 2 3 3 4 5 5 5 5 8 5 6 2 2 1 6 8 9 10 11 12 12 12 12 13 13 13 13 13 13 13 12 12 12 11 10 11 10 9 8 8 8
2 4 3 4 2 1 4 4 7 5 4 4 6 4 3 1 5 8 9 9 10 11 11 11 11 11 12 12 12 12 12 12 12 12 12 12 11 11 11 11 10 9 9 8
2 4 2 3 4 7 5 3 3 5 5 4 5 3 2 6 9 9 9 10 9 10 10 10 10 11 11 11 11 11 11 12 11 12 13 12 12 12 11 10 9 8 8 7
4 5 4 3 1 2 4 6 3 4 4 3 3 5 4 6 7 8 9 9 9 9 9 10 10 10 10 10 10 11 11 11 12 12 13 12 11 10 9 9 8 8 7 7
5 4 4 5 6 5 6 8 7 4 3 4 5 6 5 5 6 7 8 8 8 8 8 8 8 8 9 10 10 10 10 10 11 12 12 11 9 9 9 8 8 7 6 6
6 3 3 4 6 6 6 9 7 5 3 4 7 4 3 6 8 7 7 7 7 6 7 7 8 8 8 8 9 10 10 9 11 12 10 9 9 8 8 7 7 7 6 5
4 3 2 0 1 3 3 4 3 3 2 1 3 4 6 6 8 6 5 6 7 7 7 7 7 7 7 7 8 9 9 9 10 9 9 8 8 8 7 7 6 6 5 5
1 3 3 1 2 4 4 1 4 6 5 4 6 7 7 8 7 7 6 6 7 7 7 7 7 7 7 7 7 8 8 8 8 7 7 7 7 7 6 6 6 5 3 4
1 4 3 3 2 1 1 1 1 3 2 3 5 7 7 7 5 6 8 8 7 7 8 8 8 8 7 7 7 8 8 7 7 6 6 6 6 6 6 5 4 3 3 3
6 5 4 3 3 5 3 3 0 5 0 2 3 6 6 3 2 1 5 8 9 9 8 8 8 8 8 6 7 8 7 7 6 5 6 6 6 6 5 4 3 3 2 3
6 6 4 2 2 2 3 5 1 1 5 3 4 5 5 2 2 6 8 8 9 9 9 9 9 8 7 6 7 7 6 5 4 5 6 6 5 5 4 3 3 3 3 3
1 2 2 2 0 3 6 4 1 3 1 3 3 4 6 8 10 9 9 9 9 10 9 9 9 7 6 5 6 7 5 4 5 6 6 5 4 3 3 3 3 3 3 3
1 3 3 4 4 3 3 2 2 1 3 3 3 5 10 10 9 9 8 9 9 9 8 7 8 6 5 4 5 5 3 4 5 5 4 3 3 3 2 2 2 1 2 1
3 1 2 1 3 2 3 3 4 4 3 3 3 7 9 10 11 11 10 9 8 8 7 6 7 6 5 4 3 3 3 5 6 5 3 2 2 1 0 0 0 0 1 1
4 1 1 2 2 1 2 3 4 4 4 5 6 6 9 12 13 12 10 9 8 7 6 6 6 5 4 3 3 2 3 5 5 4 2 1 1 1 1 2 2 3 3 3
3 4 4 4 4 3 2 3 2 2 3 5 7 8 9 11 13 12 10 8 7 7 6 6 6 5 4 3 3 3 3 5 5 3 2 1 1 2 2 2 3 3 3 4
Wind_Direction
136 117 187 196 185 187 188 192 270 274 288 319 299 292 290 278 233 235 231 224 221 223 227 219 210 201 193 193 193 194 192 182 167 163 159 147 127 93 75 68 79 98 108 111
88 222 215 191 183 181 197 238 276 292 332 316 300 293 286 275 240 234 231 230 228 231 232 221 208 200 198 197 193 187 186 171 164 160 146 121 111 91 81 89 87 98 105 108
171 224 191 164 166 179 197 201 231 265 334 348 308 310 305 301 307 289 260 241 239 233 229 222 211 206 200 196 186 176 165 148 142 131 112 106 92 84 86 92 92 97 107 108
204 233 160 168 192 173 231 223 209 231 345 298 12 301 294 300 320 317 318 310 281 260 241 227 208 198 193 180 150 140 134 127 125 125 131 133 130 123 127 121 110 99 102 109
218 198 178 197 209 177 212 209 191 206 195 267 269 195 280 323 315 316 335 342 338 322 283 212 165 144 131 124 122 121 115 110 111 111 113 108 104 114 123 120 115 105 97 107
220 206 185 204 215 190 175 79 51 54 93 240 231 176 268 306 305 316 346 8 16 34 59 74 83 94 99 105 112 114 112 110 110 108 110 119 131 135 134 132 124 115 110 105
258 261 223 177 143 136 132 111 20 353 29 238 228 182 247 313 346 353 14 34 44 55 69 78 82 88 94 100 106 110 110 105 100 101 104 120 133 137 136 135 131 130 127 115
209 262 232 192 188 200 182 152 167 198 213 254 216 211 240 23 53 57 61 63 64 65 68 72 74 78 82 84 89 95 97 96 96 99 104 110 115 117 119 122 127 125 122 116
190 239 259 221 198 173 166 192 186 157 171 206 261 251 329 50 63 68 70 68 67 66 68 70 70 71 73 74 76 84 91 90 89 94 98 100 105 110 113 111 106 105 109 112
170 226 276 257 117 152 164 152 111 142 158 207 250 235 236 350 44 73 76 75 73 71 70 69 67 68 70 73 75 76 83 89 90 91 95 98 95 99 103 104 101 96 90 88
163 192 283 13 156 187 128 130 134 140 164 165 209 251 248 261 141 105 90 82 77 73 72 73 72 73 75 77 78 82 86 88 87 87 89 90 88 89 90 90 90 90 88 89
96 147 236 252 279 323 138 157 151 157 200 176 170 226 329 101 116 110 98 86 77 76 75 75 76 77 78 80 81 83 85 87 88 90 89 87 85 85 86 86 86 88 89 90
47 96 89 8 359 9 45 44 118 121 115 142 159 209 68 98 99 98 97 90 83 80 76 72 69 70 73 76 78 79 82 87 88 89 89 86 84 85 86 86 86 88 91 89
90 66 110 156 225 335 21 12 50 97 114 154 180 149 133 112 104 96 92 90 85 78 76 75 73 71 73 76 79 81 80 85 89 89 87 85 85 87 88 86 84 82 85 87
54 76 68 58 35 51 40 15 23 51 136 155 156 146 146 130 114 105 102 100 92 82 79 81 84 84 85 85 84 85 86 87 92 91 90 91 90 88 88 86 82 79 79 85
29 68 54 41 38 44 24 7 12 29 38 108 124 126 126 115 106 104 108 110 104 100 97 96 95 94 93 94 95 92 90 90 93 94 94 96 95 92 89 87 82 79 74 69
8 49 68 165 44 65 328 325 340 24 3 172 174 150 136 115 102 99 102 116 120 118 115 110 104 99 98 99 101 99 97 94 93 96 97 95 94 91 89 89 80 73 64 60
135 85 99 104 107 198 234 15 98 91 44 58 105 104 101 106 91 63 59 95 104 109 111 109 107 103 96 96 94 95 94 93 93 93 96 98 97 93 85 79 72 62 55 53
126 138 119 120 147 173 211 259 212 117 51 21 112 113 106 110 90 59 50 72 88 96 104 107 108 106 99 94 94 93 87 85 88 89 94 101 103 97 89 79 65 50 54 46
40 69 106 121 152 216 238 339 85 104 94 252 150 144 138 107 88 81 81 85 90 94 100 106 105 101 94 86 90 89 83 79 81 90 95 96 99 101 96 85 64 47 55 45
7 22 59 105 175 266 332 320 27 178 239 190 160 157 148 124 120 116 103 93 97 102 105 106 102 95 91 89 92 90 88 88 95 100 96 92 93 100 98 82 67 63 60 46
1 31 32 77 129 259 334 359 151 230 7 99 126 126 119 113 113 113 109 107 108 108 105 104 100 92 81 84 92 94 93 97 104 104 102 100 98 100 104 97 80 65 59 44
230 195 199 199 219 272 330 355 356 42 70 72 113 120 130 133 131 123 115 112 109 107 102 99 100 90 71 73 100 110 122 124 115 109 107 105 94 85 104 115 103 66 46 30
308 115 145 265 274 312 3 20 21 26 41 50 111 136 141 138 134 127 120 114 110 106 103 101 96 88 72 65 87 124 145 141 130 129 130 131 128 112 43 40 197 225 272 301
265 345 112 272 272 327 7 22 12 31 61 81 92 123 137 134 133 129 125 120 115 107 99 95 96 92 79 70 66 78 130 139 138 143 153 170 205 250 290 288 260 257 252 241
228 190 181 231 234 197 251 347 20 75 88 109 114 112 121 129 129 127 123 119 114 107 99 96 95 98 86 74 57 51 106 137 141 154 190 231 262 278 283 298 309 297 293 317
Height
1485 1493 1498 1496 1495 1496 1496 1499 1501 1497 1490 1490 1490 1488 1480 1475 1476 1475 1476 1477 1477 1475 1475 1479 1482 1485 1488 1491 1495 1498 1503 1507 1511 1514 1516 1519 1522 1526 1529 1532 1535 1536 1537 1539
1490 1493 1489 1488 1491 1493 1496 1500 1501 1496 1490 1489 1489 1487 1476 1471 1471 1470 1471 1471 1471 1471 1472 1474 1477 1481 1483 1486 1490 1495 1499 1504 1507 1510 1512 1516 1519 1522 1525 1526 1530 1531 1533 1535
1488 1485 1482 1487 1491 1495 1496 1499 1498 1497 1493 1490 1491 1491 1480 1469 1468 1468 1468 1468 1468 1467 1467 1468 1472 1475 1479 1482 1486 1491 1496 1500 1504 1507 1510 1513 1516 1519 1522 1522 1524 1527 1528 1530
1483 1479 1481 1485 1488 1491 1498 1491 1492 1494 1501 1507 1498 1510 1488 1475 1472 1467 1466 1466 1465 1464 1464 1465 1468 1472 1475 1479 1483 1488 1493 1497 1502 1505 1508 1509 1512 1514 1517 1520 1522 1524 1526 1526
1480 1476 1479 1483 1483 1485 1488 1485 1489 1492 1498 1506 1503 1509 1497 1480 1476 1470 1467 1465 1462 1460 1461 1462 1465 1468 1472 1477 1481 1485 1491 1496 1501 1504 1507 1510 1511 1512 1515 1519 1520 1523 1525 1524
1472 1470 1471 1473 1473 1477 1480 1486 1493 1502 1507 1514 1503 1510 1501 1488 1480 1475 1470 1468 1465 1462 1461 1462 1465 1468 1471 1475 1480 1484 1489 1494 1499 1502 1505 1507 1508 1511 1514 1517 1519 1521 1523 1523
1474 1470 1468 1468 1473 1475 1482 1497 1514 1512 1521 1516 1496 1500 1498 1483 1479 1476 1474 1471 1469 1466 1465 1466 1468 1471 1474 1478 1481 1485 1490 1493 1498 1500 1502 1505 1508 1510 1513 1515 1517 1519 1521 1523
1482 1482 1467 1465 1469 1477 1482 1491 1510 1517 1517 1509 1496 1500 1492 1481 1479 1477 1476 1475 1473 1471 1470 1471 1473 1475 1478 1481 1484 1488 1491 1495 1498 1500 1502 1505 1508 1510 1512 1515 1517 1519 1521 1523
1479 1478 1461 1459 1458 1465 1479 1485 1482 1499 1503 1507 1502 1493 1487 1481 1480 1479 1478 1478 1477 1476 1476 1477 1478 1480 1483 1485 1488 1491 1494 1496 1498 1501 1504 1506 1508 1510 1512 1515 1517 1520 1522 1523
1466 1473 1461 1456 1457 1461 1465 1473 1491 1500 1511 1512 1499 1494 1495 1486 1483 1481 1481 1481 1481 1480 1480 1481 1483 1484 1486 1488 1491 1493 1496 1498 1500 1502 1504 1507 1509 1511 1513 1516 1518 1521 1523 1524
1462 1470 1465 1460 1461 1464 1469 1474 1481 1493 1494 1504 1509 1503 1487 1485 1483 1483 1484 1484 1484 1484 1485 1486 1487 1489 1490 1492 1494 1496 1498 1500 1502 1504 1506 1508 1511 1513 1515 1518 1520 1522 1524 1525
1463 1469 1473 1465 1458 1457 1460 1467 1478 1486 1492 1494 1498 1501 1484 1482 1482 1484 1486 1488 1488 1489 1489 1490 1492 1493 1494 1495 1497 1499 1500 1502 1504 1506 1508 1510 1512 1515 1517 1519 1522 1524 1525 1526
1465 1471 1477 1475 1472 1466 1465 1466 1471 1478 1488 1496 1498 1497 1484 1482 1484 1486 1488 1490 1492 1493 1494 1495 1496 1497 1498 1499 1500 1502 1503 1505 1507 1509 1511 1513 1515 1517 1519 1521 1523 1525 1526 1526
1465 1475 1480 1484 1481 1473 1471 1469 1469 1475 1487 1489 1488 1489 1486 1485 1487 1489 1491 1493 1495 1497 1498 1498 1499 1500 1502 1503 1504 1505 1506 1508 1510 1512 1514 1515 1518 1519 1521 1523 1524 1525 1525 1525
1468 1477 1476 1476 1473 1473 1476 1476 1473 1474 1477 1483 1484 1485 1486 1487 1489 1491 1493 1496 1498 1500 1501 1502 1502 1504 1505 1506 1507 1508 1510 1511 1513 1514 1516 1518 1520 1521 1523 1524 1525 1525 1525 1524
1475 1478 1477 1479 1476 1476 1479 1479 1477 1478 1478 1480 1482 1486 1485 1487 1489 1492 1495 1497 1500 1502 1504 1504 1505 1506 1507 1508 1509 1511 1512 1514 1515 1516 1518 1520 1521 1523 1523 1524 1525 1525 1524 1523
1482 1482 1484 1487 1481 1481 1489 1484 1482 1482 1483 1482 1484 1486 1486 1487 1490 1493 1496 1498 1500 1503 1505 1506 1507 1509 1510 1511 1512 1513 1515 1516 1518 1519 1520 1522 1523 1524 1524 1525 1525 1524 1523 1522
1483 1486 1491 1491 1488 1497 1490 1483 1482 1484 1485 1483 1483 1485 1487 1490 1493 1495 1497 1499 1501 1503 1505 1507 1509 1511 1512 1514 1515 1516 1517 1518 1520 1521 1522 1523 1524 1525 1525 1525 1524 1523 1522 1520
1483 1486 1492 1496 1494 1492 1488 1484 1484 1486 1489 1487 1487 1489 1490 1492 1494 1498 1499 1501 1503 1505 1507 1509 1511 1512 1514 1516 1517 1518 1519 1521 1522 1523 1524 1525 1526 1526 1525 1525 1524 1523 1521 1520
1486 1488 1494 1496 1496 1499 1491 1485 1483 1487 1493 1489 1489 1490 1492 1494 1498 1502 1502 1502 1504 1506 1508 1510 1512 1514 1516 1518 1519 1521 1522 1523 1524 1526 1526 1527 1527 1527 1526 1525 1524 1522 1521 1520
1495 1496 1498 1499 1498 1494 1490 1487 1486 1494 1493 1488 1489 1491 1493 1496 1500 1502 1503 1504 1506 1508 1510 1512 1514 1516 1518 1520 1522 1523 1524 1525 1526 1527 1528 1528 1528 1527 1526 1525 1524 1523 1521 1520
1500 1501 1501 1502 1500 1500 1491 1488 1491 1492 1488 1489 1491 1493 1495 1497 1500 1502 1504 1506 1508 1510 1512 1514 1516 1519 1521 1522 1524 1525 1526 1527 1528 1529 1529 1529 1528 1528 1527 1526 1524 1523 1522 1520
1500 1500 1500 1501 1502 1495 1493 1492 1492 1491 1491 1492 1493 1494 1496 1498 1501 1504 1506 1508 1511 1513 1515 1517 1519 1521 1523 1525 1526 1527 1528 1529 1530 1530 1530 1529 1529 1528 1527 1526 1525 1523 1521 1519
1498 1497 1498 1497 1495 1494 1493 1493 1493 1493 1493 1494 1494 1495 1496 1498 1501 1505 1507 1510 1513 1516 1518 1520 1522 1524 1526 1527 1528 1529 1529 1530 1531 1531 1530 1530 1529 1529 1528 1526 1525 1523 1521 1519
1498 1496 1497 1497 1495 1494 1494 1494 1494 1494 1494 1494 1494 1495 1497 1499 1502 1506 1509 1513 1516 1519 1521 1523 1525 1526 1528 1529 1530 1530 1531 1531 1531 1531 1531 1531 1530 1529 1528 1526 1525 1523 1521 1519
1495 1496 1497 1497 1494 1494 1494 1494 1494 1494 1494 1494 1495 1496 1498 1501 1503 1507 1511 1515 1519 1522 1524 1526 1528 1529 1530 1531 1531 1531 1532 1532 1532 1532 1531 1531 1530 1529 1527 1526 1524 1522 1520 1518